Accueil
METAR-TAF:

METAR-TAF

Aéroports :

Tokushima, Japon

latitude: 34-08N, longitude: 134-37E, altitude: 8 m

Observation

Le bulletin a été fait il y a 38 minutes, à 16:43 UTC
Vent 12 kt de nord
Température 13°C
Humidité 72%
Pression 1018 hPa
Visibilité 10 km ou plus
Quelques nuages à une hauteur de 1500 ft
Nuages fragmentés à une hauteur de 3000 ft
Nuages fragmentés à une hauteur de 5000 ft

METAR: RJOS 191643Z 01012KT 9999 FEW015 BKN030 BKN050 13/08 Q1018 RMK 1CU015 5CU030 7SC050 A3007

Heure: 02:21 (17:21 UTC)


TAF: absent

Observations et prévisions météorologiques de plus de 4000 aéroports (messages METAR et TAF).

Les stations disponibles sont représentées par des disques jaunes et rouges sur la carte.

Passer la souris dessus pour voir le nom de la station.

Cliquer dessus pour voir les observations et prévisions météorologiques.

Pour changer de carte: cliquez sur les boutons verts avec une croix noire pour zoomer, sur le bouton vert avec un tiret pour effectuer un zoom arrière, ou sur les flèches vertes pour les cartes adjacentes.


METAR-TAF: